Location: Gesvres
(49.0440°N, 2.8518°E)
Time: 15:33:44
(UTC+00:00)

CZ-4B R/B - Pass Details

Date: 28 January 2023
Orbit: 809 x 881 km, 99.0° (Epoch: 25 March)

Event Time Altitude Azimuth Distance (km) Brightness Sun altitude
Rises 19:10:08 0° 180° (S) 3,320 6.3 -24.7°
Reaches altitude 10° 19:12:31 10° 186° (S) 2,398 5.6 -25.1°
Maximum altitude 19:17:39 49° 260° (W) 1,060 4.0 -26.0°
Drops below altitude 10° 19:22:53 10° 335° (NNW) 2,451 5.9 -26.8°
Sets 19:25:22 0° 341° (NNW) 3,400 6.6 -27.2°
